Location: The Saddle
(36.8333°N, 80.3417°W)
Time: 09:19:52
(UTC-04:00)

Courier 1B - Pass Details

Date: 20 January 2022
Orbit: 962 x 1209 km, 28.3° (Epoch: 26 May)

Event Time Altitude Azimuth Distance (km) Brightness Sun altitude
Rises 00:10:22 0° 258° (WSW) 4,062 - -72.6°
Reaches altitude 10° 00:13:24 10° 252° (WSW) 3,073 - -72.8°
Maximum altitude 00:20:29 43° 184° (S) 1,523 - -73.1°
Drops below altitude 10° 00:27:11 10° 115° (ESE) 2,906 - -73.3°
Sets 00:29:58 0° 109° (ESE) 3,823 - -73.3°
